Regional Weather Roundup
Issued by NWS

Home | Current Version | Previous Version | Text Only | Print | Product List | Glossary On
Versions: 1 2 3 4 5 6 7 8 9 10 11 12 13 14 15 16 17 18 19 20 21 22 23 24 25 26 27 28 29 30 31 32 33 34 35 36 37 38 39 40 41 42 43 44 45 46 47 48 49 50
000
ASUS43 KMPX 251001
RWRMN
WEATHER ROUNDUP FOR MINNESOTA
NATIONAL WEATHER SERVICE TWIN CITIES/CHANHASSEN MN
500 AM CDT WED MAY 25 2016


NOTE: "FAIR" INDICATES FEW OR NO CLOUDS BELOW 12,000 FEET WITH NO
SIGNIFICANT WEATHER AND/OR OBSTRUCTIONS TO VISIBILITY. N/A MEANS
CURRENT SKY AND/OR WEATHER CONDITIONS ARE NOT AVAILABLE.

MNZ060>063-068>070-251100-
   Twin Cities Metro

CITY           SKY/WX    TMP DP  RH WIND       PRES   REMARKS
TWIN CITIES    CLOUDY    67  57  70 E9        29.87F
ST PAUL        CLOUDY    66  56  70 E8        29.88F
CRYSTAL        CLOUDY    65  55  70 E5        29.86F
BLAINE         CLOUDY    63  57  82 NE5       29.88F
EDEN PRAIRIE   CLOUDY    66  58  75 E8        29.85F
SOUTH ST PAUL  CLOUDY    65  56  73 E3        29.88F
LAKE ELMO      FAIR      63  55  77 NE5       29.90F
$$
MNZ001>005-007-008-013>017-022>024-027-028-251100-
   Northwest Minnesota

CITY           SKY/WX    TMP DP  RH WIND       PRES   REMARKS
BEMIDJI        CLOUDY    56  53  88 E5        29.94S
HALLOCK        MOCLDY    59  52  77 E7        29.89S
ROSEAU         CLOUDY    54  48  82 E3        29.93F
WARROAD        CLOUDY    54  50  87 SE5       29.95F
THIEF RVR FALL CLOUDY    59  50  72 E13       29.92S
CROOKSTON      CLOUDY    61  52  72 E12       29.87F
FOSSTON        CLOUDY    57  52  82 E6        29.91S
DETROIT LAKES  MOCLDY    63  50  63 E8        29.89S
MOORHEAD       CLOUDY    66  48  52 E13       29.83F
PARK RAPIDS    PTCLDY    59  53  80 E10       29.91F
MAHNOMEN       FAIR      63  49  60 E13       29.88F
$$
MNZ006-009>011-018-025>026-251100-
   North Central Minnesota

CITY           SKY/WX    TMP DP  RH WIND       PRES   REMARKS
BAUDETTE       CLOUDY    50  48  93 SE5       29.95F
FLAG ISLAND    CLEAR     57  55  94 SE7       29.95R
INTL FALLS     FOG       46  46 100 SE3       29.98R VSB 1/4
WASKISH        PTCLDY    52  52 100 E6        29.96S
BIG FORK       CLOUDY    57  54  88 SE8       29.98F
LONGVILLE      CLOUDY    57  55  94 E5        29.95F
CRANE LAKE     CLOUDY    52  52 100 S3        30.03R
ORR            CLOUDY    54  52  94 CALM      29.98S
COOK           CLOUDY    52  52 100 CALM      30.01F
WALKER         CLOUDY    56  55  94 E8        29.95S
$$
MNZ012-019>021-037-251100-
   Northeast Minnesota

CITY           SKY/WX    TMP DP  RH WIND       PRES   REMARKS
DULUTH         FOG       49  48  97 E10       30.01F VSB 1/2
ELY            CLOUDY    52  48  87 SE5       30.03S
HIBBING        CLOUDY    52  51  97 SE7       30.01S
EVELETH        CLOUDY    52  50  93 E5        30.02F
DULUTH HARBOR  CLOUDY    46  45  93 E14       30.04S FOG
TWO HARBORS    CLOUDY    54  48  82 E8        30.02S HAZE
SILVER BAY     CLOUDY    52  48  87 NE5       30.03R FOG
GRAND MARAIS     N/A     48  46  93 NE6       30.07S
G MARAIS ARPRT DRZL/FOG  48  45  87 E3        30.07S VSB 1/4
$$
MNZ029>031-032-039>041-046>048-054>057-064-251100-
   West Central Minnesota

CITY           SKY/WX    TMP DP  RH WIND       PRES   REMARKS
FERGUS FALLS   CLOUDY    66  52  59 SE10      29.80F
WHEATON        CLOUDY    64  55  72 E10       29.81F
MORRIS         MOCLDY    63  55  77 E10       29.80F
ALEXANDRIA     CLOUDY    61  53  75 E10       29.87F
ELBOW LAKE     FAIR      63  55  76 SE10      29.83F
WADENA         CLOUDY    55  52  88 E6        29.88F
GLENWOOD       MOCLDY    61  55  82 E9        29.85F
APPLETON       CLOUDY    64  55  72 E9        29.79F
ORTONVILLE     CLOUDY    63  55  77 E12       29.79S
MADISON        CLOUDY    64  55  72 E9        29.78F
WILLMAR        FAIR      66  61  82 E7        29.84F
$$
MNZ033>034-036-042>043-049>051-058-059-251100-
   Central Minnesota

CITY           SKY/WX    TMP DP  RH WIND       PRES   REMARKS
ST CLOUD       CLOUDY    59  56  89 E9        29.88F
SAUK CENTRE    FAIR      59  54  83 E10       29.86F
PAYNESVILLE    MOCLDY    63  56  80 E6        29.86F
AITKIN         CLOUDY    55  50  82 E6        29.94F
PINE RIVER     CLOUDY    55  55 100 E7        29.97S
BRAINERD       CLOUDY    56  56 100 E10       29.93F
STAPLES        PTCLDY    57  54  88 E5        29.90F
LONG PRAIRIE   FAIR      55  52  88 NE5       29.89F
LITTLE FALLS   CLOUDY    57  54  88 CALM      29.89F
LITCHFIELD     CLOUDY    63  61  94 E5        29.86F
BUFFALO        CLOUDY    63  56  78 NE5       29.87F
MAPLE LAKE     CLOUDY    62  58  88 CALM      29.88F
HUTCHINSON     MOCLDY    63  59  88 NE7       29.86F
$$
MNZ037-044-045-052-053-251100-
   East Central Minnesota

CITY           SKY/WX    TMP DP  RH WIND       PRES   REMARKS
PRINCETON      CLOUDY    59  55  88 NE6       29.90F
MORA           CLOUDY    55  54  94 NE5       29.95F FOG
CAMBRIDGE      CLOUDY    59  52  77 NE5       29.89F
RUSH CITY      CLOUDY    57  56  95 NE7       29.93F FOG
MOOSE LAKE     CLOUDY    48  46  93 NE6       29.97F FOG
HINCKLEY       CLOUDY    54  54 100 NE6       29.95F FOG
CLOQUET        FOG       48  46  93 E8        30.00F VSB 1/2
MCGREGOR       CLOUDY    52  52 100 E7        29.97F
$$
MNZ071>073-080-081-089-090-097-098-251100-
   Southwest Minnesota

CITY           SKY/WX    TMP DP  RH WIND       PRES   REMARKS
MONTEVIDEO     CLOUDY    64  57  77 SE8       29.82F
GRANITE FALLS  MOCLDY    66  60  81 E7        29.81F
CANBY          CLOUDY    64  59  85 SE6       29.79F
MARSHALL       MOCLDY    64  60  87 SE9       29.80F
REDWOOD FALLS  CLOUDY    66  59  78 E9        29.81F
OLIVIA         CLOUDY    59  52  77 E8        29.82F
PIPESTONE      LGT RAIN  66  63  88 SE14G22   29.78F
WINDOM         CLOUDY    64  61  88 CALM      29.84R
WORTHINGTON    LGT RAIN  64  62  93 SE8       29.84R
JACKSON        CLOUDY    64  59  82 SE6       29.86R
TRACY          CLOUDY    64  61  88 SE6       29.81F
SLAYTON        CLOUDY    63  62  96 SE10      29.85R
$$
MNZ065>067-074>077-082>085-091>093-251100-
   South Central Minnesota

CITY           SKY/WX    TMP DP  RH WIND       PRES   REMARKS
MANKATO        CLOUDY    66  55  68 SE9       29.85S
NEW ULM        CLOUDY    63  57  82 SE9       29.84R
ST JAMES       CLOUDY    61  54  77 E12       29.83F
FAIRMONT       CLOUDY    64  54  68 E12       29.83F
GLENCOE        CLOUDY    63  61  94 NE3       29.85F
FARIBAULT      CLOUDY    63  57  82 CALM      29.87F
OWATONNA       CLOUDY    64  57  77 SE8       29.87S
WASECA         PTCLDY    64  55  72 SE8       29.88R
ALBERT LEA     PTCLDY    64  57  77 SE5       29.87S
$$
MNZ078>079-086>088-094>096-251100-
   Southeast Minnesota

CITY           SKY/WX    TMP DP  RH WIND       PRES   REMARKS
ROCHESTER      MOCLDY    62  59  90 SE8       29.90F
RED WING       CLOUDY    57  55  94 CALM      29.88F
STANTON        CLOUDY    64  57  80 E6        29.86F
DODGE CENTER   PTCLDY    63  55  77 SE8       29.89S
WINONA         CLOUDY    61  59  94 CALM      29.91F
AUSTIN         CLOUDY    63  57  82 E6        29.88S
PRESTON        CLOUDY    63  57  81 E5        29.91S
$$
ABBREVIATIONS USED IN REMARKS
   TC - TEMPERATURES IN CELSIUS
  WCI - WIND CHILL INDEX
   HX - HEAT INDEX
  VSB - VISIBILITY
$$



USA.gov is the U.S. government's official web portal to all federal, state and local government web resources and services.